QPF
0.07 0.09 0.10 0.11 0.11 0.10 0.10 0.10 0.10 0.08 0.08 0.07 0.07 0.07 0.08 0.10 0.10 0.11 0.08 0.06 0.07 0.08 0.07 0.11 0.08 0.09 0.11 0.10 0.08 0.08 0.08 0.08 0.08 0.07 0.06 0.06 0.06 0.06 0.04 0.04 0.05 0.06 0.07
0.09 0.10 0.09 0.10 0.08 0.07 0.07 0.09 0.10 0.10 0.08 0.07 0.05 0.05 0.06 0.09 0.10 0.09 0.09 0.08 0.06 0.06 0.07 0.08 0.07 0.09 0.10 0.10 0.08 0.07 0.07 0.07 0.06 0.06 0.06 0.07 0.06 0.05 0.05 0.04 0.04 0.05 0.06
0.12 0.11 0.09 0.08 0.07 0.06 0.05 0.06 0.07 0.07 0.06 0.05 0.05 0.05 0.06 0.07 0.06 0.06 0.11 0.12 0.09 0.08 0.09 0.09 0.09 0.10 0.13 0.13 0.12 0.10 0.08 0.07 0.06 0.05 0.07 0.07 0.05 0.04 0.04 0.05 0.05 0.04 0.04
0.08 0.09 0.08 0.07 0.07 0.06 0.05 0.05 0.06 0.06 0.06 0.06 0.05 0.05 0.06 0.08 0.05 0.04 0.05 0.08 0.10 0.08 0.09 0.08 0.08 0.10 0.13 0.14 0.11 0.10 0.09 0.08 0.08 0.08 0.08 0.06 0.05 0.04 0.04 0.05 0.04 0.03 0.03
0.08 0.08 0.08 0.07 0.07 0.07 0.06 0.06 0.07 0.08 0.08 0.07 0.05 0.04 0.05 0.05 0.05 0.04 0.02 0.04 0.05 0.06 0.05 0.07 0.07 0.07 0.10 0.10 0.10 0.09 0.08 0.08 0.08 0.08 0.09 0.09 0.08 0.06 0.04 0.05 0.04 0.03 0.03
0.06 0.07 0.07 0.06 0.06 0.08 0.09 0.09 0.08 0.08 0.07 0.07 0.05 0.04 0.05 0.04 0.04 0.03 0.02 0.03 0.03 0.03 0.04 0.05 0.09 0.08 0.07 0.08 0.10 0.08 0.07 0.07 0.05 0.04 0.05 0.07 0.09 0.07 0.05 0.05 0.05 0.04 0.03
0.07 0.06 0.05 0.06 0.06 0.07 0.07 0.08 0.10 0.10 0.08 0.07 0.07 0.06 0.05 0.04 0.03 0.04 0.04 0.04 0.04 0.05 0.05 0.07 0.09 0.11 0.08 0.06 0.06 0.06 0.06 0.07 0.07 0.04 0.04 0.06 0.07 0.08 0.07 0.07 0.06 0.05 0.04
0.07 0.06 0.06 0.06 0.07 0.10 0.08 0.07 0.10 0.10 0.09 0.10 0.08 0.09 0.08 0.08 0.06 0.04 0.03 0.03 0.04 0.06 0.06 0.08 0.12 0.14 0.13 0.10 0.07 0.06 0.06 0.06 0.07 0.07 0.05 0.06 0.07 0.07 0.07 0.07 0.07 0.06 0.06
0.03 0.04 0.04 0.05 0.07 0.07 0.07 0.08 0.09 0.10 0.09 0.10 0.09 0.09 0.09 0.08 0.08 0.07 0.04 0.04 0.05 0.06 0.06 0.08 0.10 0.11 0.11 0.12 0.11 0.10 0.09 0.07 0.07 0.07 0.07 0.06 0.06 0.07 0.07 0.07 0.06 0.06 0.06
0.02 0.02 0.03 0.05 0.06 0.07 0.08 0.06 0.06 0.08 0.09 0.08 0.10 0.08 0.07 0.09 0.10 0.09 0.08 0.07 0.07 0.07 0.05 0.06 0.06 0.08 0.10 0.11 0.11 0.11 0.10 0.07 0.07 0.07 0.09 0.11 0.11 0.10 0.08 0.06 0.07 0.07 0.07
0.03 0.03 0.03 0.04 0.05 0.05 0.06 0.06 0.06 0.06 0.06 0.05 0.06 0.07 0.07 0.07 0.07 0.07 0.08 0.08 0.09 0.07 0.04 0.04 0.04 0.05 0.06 0.08 0.09 0.08 0.09 0.10 0.08 0.08 0.09 0.09 0.11 0.13 0.12 0.10 0.08 0.10 0.10
0.05 0.05 0.05 0.04 0.03 0.04 0.04 0.05 0.06 0.06 0.05 0.05 0.05 0.06 0.06 0.06 0.06 0.05 0.06 0.07 0.09 0.09 0.06 0.05 0.03 0.02 0.02 0.04 0.05 0.05 0.06 0.08 0.06 0.06 0.07 0.06 0.06 0.08 0.10 0.11 0.10 0.11 0.12
0.04 0.05 0.06 0.04 0.03 0.03 0.03 0.04 0.04 0.04 0.05 0.06 0.06 0.05 0.06 0.05 0.04 0.05 0.06 0.06 0.06 0.08 0.07 0.05 0.03 0.01 0.01 0.01 0.03 0.04 0.05 0.06 0.05 0.06 0.07 0.06 0.04 0.04 0.06 0.08 0.09 0.11 0.13
0.02 0.04 0.04 0.03 0.03 0.02 0.02 0.04 0.04 0.04 0.05 0.06 0.05 0.05 0.05 0.05 0.04 0.04 0.04 0.04 0.04 0.06 0.07 0.04 0.03 0.01 0.01 0.01 0.02 0.03 0.04 0.06 0.05 0.05 0.05 0.05 0.05 0.05 0.04 0.05 0.05 0.06 0.09
0.03 0.03 0.03 0.03 0.03 0.03 0.04 0.04 0.05 0.05 0.07 0.07 0.06 0.05 0.05 0.04 0.04 0.03 0.02 0.03 0.03 0.05 0.06 0.04 0.03 0.01 0.01 0.02 0.02 0.02 0.03 0.04 0.04 0.04 0.05 0.04 0.04 0.05 0.05 0.04 0.04 0.03 0.04
0.05 0.07 0.05 0.05 0.04 0.04 0.04 0.04 0.05 0.06 0.05 0.05 0.06 0.07 0.05 0.04 0.04 0.04 0.03 0.03 0.04 0.04 0.05 0.03 0.02 0.02 0.01 0.02 0.03 0.02 0.04 0.04 0.03 0.02 0.03 0.03 0.02 0.03 0.04 0.05 0.04 0.03 0.02
0.05 0.09 0.08 0.05 0.04 0.03 0.03 0.03 0.04 0.04 0.04 0.04 0.05 0.06 0.05 0.05 0.06 0.06 0.06 0.05 0.04 0.04 0.04 0.03 0.03 0.02 0.03 0.03 0.05 0.06 0.05 0.04 0.03 0.02 0.02 0.01 0.01 0.01 0.01 0.03 0.04 0.03 0.02
0.03 0.04 0.04 0.02 0.02 0.02 0.03 0.03 0.03 0.04 0.04 0.05 0.05 0.06 0.06 0.05 0.05 0.05 0.06 0.06 0.05 0.04 0.04 0.03 0.02 0.03 0.03 0.03 0.05 0.07 0.07 0.06 0.05 0.03 0.02 0.01 0.01 0.01 0.01 0.01 0.02 0.02 0.02
0.02 0.02 0.03 0.03 0.03 0.03 0.03 0.04 0.04 0.03 0.03 0.04 0.06 0.06 0.05 0.05 0.05 0.05 0.05 0.04 0.04 0.03 0.03 0.03 0.02 0.02 0.02 0.03 0.05 0.05 0.06 0.08 0.06 0.04 0.03 0.02 0.02 0.02 0.02 0.01 0.01 0.02 0.02
0.02 0.03 0.03 0.04 0.04 0.03 0.03 0.03 0.03 0.03 0.03 0.03 0.05 0.06 0.06 0.06 0.05 0.06 0.06 0.05 0.04 0.04 0.04 0.03 0.02 0.02 0.03 0.03 0.04 0.04 0.04 0.05 0.05 0.05 0.06 0.05 0.04 0.04 0.03 0.03 0.03 0.02 0.03
0.03 0.04 0.04 0.04 0.04 0.03 0.02 0.02 0.02 0.02 0.03 0.03 0.04 0.04 0.05 0.06 0.06 0.06 0.05 0.04 0.04 0.04 0.04 0.04 0.04 0.04 0.04 0.05 0.04 0.04 0.04 0.04 0.05 0.05 0.05 0.05 0.04 0.04 0.05 0.06 0.06 0.05 0.05
0.04 0.05 0.05 0.05 0.04 0.03 0.03 0.02 0.02 0.04 0.05 0.05 0.06 0.06 0.06 0.06 0.05 0.04 0.03 0.04 0.05 0.05 0.06 0.06 0.06 0.06 0.06 0.06 0.05 0.05 0.04 0.04 0.04 0.04 0.05 0.04 0.04 0.06 0.07 0.09 0.10 0.09 0.10
0.02 0.03 0.03 0.04 0.04 0.06 0.04 0.03 0.03 0.03 0.04 0.05 0.06 0.06 0.06 0.05 0.05 0.05 0.05 0.04 0.04 0.04 0.04 0.05 0.05 0.05 0.06 0.07 0.07 0.06 0.05 0.04 0.04 0.03 0.04 0.04 0.04 0.06 0.08 0.11 0.12 0.15 0.12
0.03 0.03 0.04 0.04 0.05 0.05 0.04 0.03 0.03 0.04 0.06 0.06 0.06 0.06 0.07 0.07 0.06 0.05 0.05 0.04 0.03 0.03 0.03 0.02 0.03 0.03 0.04 0.06 0.06 0.06 0.06 0.04 0.03 0.02 0.04 0.04 0.05 0.08 0.09 0.11 0.13 0.13 0.08
0.04 0.04 0.04 0.04 0.04 0.04 0.04 0.03 0.02 0.04 0.05 0.06 0.06 0.06 0.06 0.07 0.08 0.07 0.05 0.04 0.04 0.04 0.03 0.03 0.02 0.02 0.02 0.02 0.03 0.04 0.04 0.04 0.03 0.02 0.04 0.06 0.06 0.10 0.11 0.09 0.10 0.11 0.06
0.04 0.05 0.04 0.04 0.04 0.04 0.04 0.04 0.03 0.04 0.05 0.05 0.06 0.06 0.06 0.06 0.07 0.05 0.04 0.04 0.03 0.04 0.04 0.04 0.03 0.03 0.02 0.02 0.03 0.03 0.04 0.04 0.04 0.04 0.04 0.09 0.09 0.11 0.11 0.07 0.07 0.11 0.08
MSLP
998.89 998.37 997.63 996.85 996.19 995.82 995.84 996.26 996.99 997.89 998.77 999.48 999.93 1000.12 1000.14 1000.13 1000.24 1000.59 1001.25 1002.18 1003.29 1004.45 1005.52 1006.42 1007.11 1007.61 1008.01 1008.40 1008.89 1009.51 1010.26 1011.12 1012.01 1012.85 1013.60 1014.24 1014.77 1015.25 1015.72 1016.22 1016.78 1017.38 1018.00
999.84 999.67 999.38 999.04 998.77 998.65 998.75 999.05 999.52 1000.05 1000.51 1000.84 1000.99 1000.98 1000.91 1000.87 1001.00 1001.36 1001.97 1002.79 1003.73 1004.68 1005.54 1006.25 1006.79 1007.21 1007.59 1008.00 1008.53 1009.20 1010.01 1010.90 1011.81 1012.67 1013.43 1014.08 1014.64 1015.15 1015.64 1016.16 1016.72 1017.33 1017.94
1000.37 1000.33 1000.25 1000.16 1000.12 1000.16 1000.32 1000.59 1000.93 1001.27 1001.55 1001.74 1001.81 1001.80 1001.79 1001.83 1002.02 1002.39 1002.92 1003.58 1004.29 1004.97 1005.57 1006.03 1006.40 1006.71 1007.05 1007.48 1008.05 1008.77 1009.62 1010.55 1011.48 1012.36 1013.14 1013.82 1014.41 1014.96 1015.49 1016.03 1016.61 1017.22 1017.82
1000.77 1000.71 1000.68 1000.69 1000.75 1000.88 1001.09 1001.35 1001.65 1001.95 1002.21 1002.41 1002.55 1002.66 1002.79 1002.96 1003.23 1003.59 1004.02 1004.49 1004.93 1005.31 1005.61 1005.82 1005.99 1006.18 1006.46 1006.88 1007.47 1008.22 1009.10 1010.05 1011.01 1011.90 1012.72 1013.44 1014.08 1014.68 1015.25 1015.84 1016.45 1017.05 1017.65
1001.30 1001.15 1001.07 1001.09 1001.17 1001.33 1001.56 1001.83 1002.13 1002.44 1002.74 1003.02 1003.29 1003.56 1003.85 1004.15 1004.48 1004.82 1005.14 1005.40 1005.59 1005.67 1005.69 1005.65 1005.63 1005.69 1005.90 1006.29 1006.87 1007.63 1008.51 1009.46 1010.42 1011.33 1012.17 1012.94 1013.64 1014.31 1014.95 1015.59 1016.23 1016.85 1017.44
1002.11 1001.85 1001.71 1001.68 1001.75 1001.90 1002.11 1002.37 1002.66 1002.98 1003.32 1003.68 1004.05 1004.45 1004.85 1005.25 1005.63 1005.93 1006.14 1006.23 1006.19 1006.04 1005.82 1005.59 1005.41 1005.36 1005.49 1005.83 1006.38 1007.09 1007.95 1008.86 1009.80 1010.71 1011.57 1012.38 1013.15 1013.89 1014.61 1015.31 1015.99 1016.63 1017.22
1003.19 1002.87 1002.68 1002.61 1002.65 1002.76 1002.93 1003.14 1003.38 1003.66 1003.99 1004.35 1004.77 1005.21 1005.68 1006.12 1006.50 1006.77 1006.90 1006.87 1006.69 1006.39 1006.03 1005.67 1005.39 1005.27 1005.33 1005.61 1006.09 1006.73 1007.51 1008.36 1009.24 1010.13 1010.99 1011.84 1012.67 1013.49 1014.28 1015.04 1015.76 1016.41 1017.00
1004.43 1004.10 1003.90 1003.81 1003.82 1003.89 1003.99 1004.11 1004.27 1004.45 1004.68 1004.97 1005.34 1005.76 1006.21 1006.64 1007.01 1007.25 1007.35 1007.28 1007.05 1006.71 1006.31 1005.92 1005.61 1005.45 1005.47 1005.69 1006.08 1006.63 1007.29 1008.04 1008.84 1009.67 1010.52 1011.39 1012.27 1013.14 1013.99 1014.81 1015.55 1016.22 1016.80
1005.65 1005.35 1005.18 1005.10 1005.09 1005.12 1005.15 1005.16 1005.18 1005.21 1005.29 1005.45 1005.70 1006.02 1006.40 1006.79 1007.14 1007.38 1007.50 1007.46 1007.28 1006.99 1006.65 1006.32 1006.05 1005.91 1005.91 1006.06 1006.37 1006.80 1007.34 1007.96 1008.66 1009.41 1010.23 1011.09 1011.98 1012.89 1013.78 1014.62 1015.39 1016.05 1016.62
1006.67 1006.44 1006.31 1006.27 1006.26 1006.25 1006.20 1006.11 1005.99 1005.86 1005.77 1005.76 1005.85 1006.04 1006.32 1006.65 1006.97 1007.24 1007.41 1007.46 1007.39 1007.23 1007.02 1006.81 1006.63 1006.54 1006.55 1006.66 1006.89 1007.21 1007.61 1008.11 1008.69 1009.36 1010.12 1010.95 1011.84 1012.75 1013.66 1014.50 1015.26 1015.91 1016.45
1007.41 1007.25 1007.18 1007.17 1007.17 1007.13 1007.03 1006.85 1006.61 1006.35 1006.11 1005.93 1005.88 1005.94 1006.12 1006.38 1006.68 1006.97 1007.21 1007.36 1007.43 1007.43 1007.37 1007.30 1007.24 1007.22 1007.26 1007.35 1007.51 1007.74 1008.04 1008.42 1008.90 1009.48 1010.17 1010.96 1011.82 1012.71 1013.60 1014.43 1015.15 1015.77 1016.28
1007.88 1007.77 1007.74 1007.75 1007.76 1007.72 1007.59 1007.37 1007.05 1006.70 1006.35 1006.07 1005.90 1005.86 1005.95 1006.15 1006.42 1006.72 1007.01 1007.25 1007.43 1007.56 1007.65 1007.71 1007.76 1007.82 1007.89 1007.99 1008.12 1008.28 1008.50 1008.79 1009.19 1009.70 1010.33 1011.07 1011.89 1012.74 1013.58 1014.37 1015.05 1015.63 1016.11
1008.15 1008.05 1008.04 1008.07 1008.09 1008.05 1007.92 1007.69 1007.36 1006.98 1006.59 1006.26 1006.03 1005.93 1005.95 1006.10 1006.33 1006.61 1006.91 1007.19 1007.43 1007.65 1007.83 1007.98 1008.11 1008.23 1008.35 1008.46 1008.57 1008.71 1008.89 1009.15 1009.49 1009.95 1010.53 1011.21 1011.98 1012.78 1013.57 1014.30 1014.94 1015.47 1015.91
1008.30 1008.21 1008.19 1008.21 1008.24 1008.21 1008.10 1007.89 1007.60 1007.25 1006.89 1006.57 1006.34 1006.21 1006.20 1006.29 1006.47 1006.69 1006.95 1007.20 1007.45 1007.67 1007.87 1008.07 1008.24 1008.41 1008.56 1008.69 1008.83 1008.98 1009.16 1009.40 1009.73 1010.16 1010.71 1011.35 1012.06 1012.80 1013.53 1014.21 1014.79 1015.29 1015.69
1008.44 1008.33 1008.28 1008.29 1008.30 1008.27 1008.19 1008.03 1007.81 1007.53 1007.25 1006.99 1006.79 1006.67 1006.64 1006.69 1006.80 1006.95 1007.12 1007.29 1007.47 1007.64 1007.82 1007.99 1008.18 1008.36 1008.54 1008.71 1008.89 1009.07 1009.28 1009.54 1009.88 1010.31 1010.83 1011.43 1012.09 1012.77 1013.45 1014.06 1014.60 1015.06 1015.44
1008.61 1008.46 1008.37 1008.34 1008.33 1008.30 1008.23 1008.12 1007.97 1007.78 1007.59 1007.42 1007.29 1007.20 1007.17 1007.18 1007.22 1007.28 1007.34 1007.41 1007.48 1007.57 1007.68 1007.81 1007.98 1008.16 1008.37 1008.58 1008.80 1009.03 1009.29 1009.58 1009.94 1010.37 1010.87 1011.44 1012.05 1012.67 1013.28 1013.85 1014.35 1014.78 1015.16
1008.81 1008.61 1008.47 1008.39 1008.33 1008.28 1008.22 1008.14 1008.04 1007.93 1007.83 1007.73 1007.67 1007.63 1007.61 1007.59 1007.58 1007.55 1007.52 1007.49 1007.46 1007.47 1007.50 1007.59 1007.73 1007.92 1008.14 1008.39 1008.66 1008.94 1009.24 1009.57 1009.94 1010.36 1010.84 1011.36 1011.91 1012.48 1013.04 1013.55 1014.02 1014.44 1014.81
1008.99 1008.75 1008.56 1008.41 1008.30 1008.21 1008.13 1008.05 1007.98 1007.91 1007.86 1007.83 1007.82 1007.81 1007.81 1007.79 1007.75 1007.67 1007.58 1007.48 1007.39 1007.34 1007.33 1007.39 1007.53 1007.72 1007.96 1008.24 1008.54 1008.85 1009.18 1009.53 1009.89 1010.29 1010.73 1011.19 1011.69 1012.19 1012.69 1013.16 1013.61 1014.01 1014.38
1009.11 1008.84 1008.60 1008.40 1008.23 1008.08 1007.95 1007.85 1007.76 1007.70 1007.67 1007.66 1007.67 1007.69 1007.70 1007.69 1007.65 1007.57 1007.47 1007.35 1007.26 1007.19 1007.19 1007.26 1007.40 1007.61 1007.87 1008.17 1008.49 1008.81 1009.14 1009.47 1009.80 1010.16 1010.53 1010.94 1011.36 1011.80 1012.24 1012.68 1013.09 1013.49 1013.86
1009.15 1008.86 1008.59 1008.35 1008.13 1007.92 1007.74 1007.58 1007.45 1007.35 1007.29 1007.27 1007.28 1007.30 1007.32 1007.32 1007.30 1007.25 1007.18 1007.11 1007.05 1007.03 1007.06 1007.17 1007.34 1007.58 1007.86 1008.17 1008.48 1008.79 1009.09 1009.38 1009.66 1009.95 1010.26 1010.59 1010.94 1011.32 1011.71 1012.10 1012.49 1012.88 1013.26
1009.13 1008.83 1008.56 1008.30 1008.05 1007.81 1007.57 1007.35 1007.16 1006.99 1006.88 1006.80 1006.77 1006.76 1006.77 1006.78 1006.78 1006.78 1006.77 1006.76 1006.77 1006.83 1006.93 1007.09 1007.31 1007.57 1007.87 1008.17 1008.47 1008.74 1008.99 1009.23 1009.45 1009.67 1009.91 1010.16 1010.45 1010.77 1011.11 1011.47 1011.85 1012.23 1012.61
1009.10 1008.82 1008.57 1008.33 1008.09 1007.83 1007.56 1007.29 1007.03 1006.79 1006.58 1006.42 1006.31 1006.24 1006.21 1006.21 1006.22 1006.25 1006.29 1006.35 1006.45 1006.58 1006.75 1006.97 1007.23 1007.51 1007.81 1008.10 1008.37 1008.60 1008.81 1008.98 1009.15 1009.31 1009.48 1009.68 1009.92 1010.19 1010.50 1010.83 1011.19 1011.57 1011.94
1009.11 1008.89 1008.69 1008.51 1008.30 1008.07 1007.80 1007.50 1007.18 1006.85 1006.55 1006.29 1006.07 1005.91 1005.80 1005.75 1005.73 1005.77 1005.83 1005.94 1006.08 1006.27 1006.49 1006.75 1007.03 1007.33 1007.62 1007.89 1008.13 1008.32 1008.49 1008.63 1008.75 1008.87 1009.01 1009.19 1009.39 1009.64 1009.93 1010.25 1010.59 1010.95 1011.33
1009.22 1009.07 1008.97 1008.87 1008.75 1008.57 1008.33 1008.02 1007.66 1007.27 1006.87 1006.49 1006.16 1005.87 1005.65 1005.51 1005.42 1005.40 1005.44 1005.54 1005.69 1005.89 1006.13 1006.39 1006.68 1006.97 1007.25 1007.49 1007.72 1007.90 1008.05 1008.18 1008.29 1008.42 1008.55 1008.73 1008.93 1009.17 1009.45 1009.76 1010.09 1010.44 1010.79
1009.45 1009.40 1009.41 1009.42 1009.39 1009.29 1009.09 1008.81 1008.43 1007.99 1007.50 1007.01 1006.55 1006.13 1005.77 1005.49 1005.30 1005.18 1005.15 1005.19 1005.29 1005.46 1005.67 1005.91 1006.18 1006.45 1006.71 1006.95 1007.17 1007.36 1007.53 1007.67 1007.82 1007.97 1008.14 1008.34 1008.56 1008.81 1009.09 1009.39 1009.71 1010.04 1010.37
1009.79 1009.84 1009.95 1010.07 1010.14 1010.12 1009.99 1009.73 1009.35 1008.87 1008.32 1007.73 1007.15 1006.59 1006.09 1005.67 1005.34 1005.10 1004.95 1004.89 1004.92 1005.01 1005.16 1005.36 1005.59 1005.83 1006.08 1006.32 1006.55 1006.77 1006.98 1007.17 1007.37 1007.58 1007.80 1008.04 1008.29 1008.56 1008.85 1009.13 1009.43 1009.73 1010.02
Thickness
5783 5784 5782 5782 5782 5782 5780 5779 5778 5778 5778 5778 5779 5780 5779 5779 5778 5775 5773 5772 5770 5769 5767 5766 5764 5763 5762 5761 5760 5758 5757 5756 5755 5753 5752 5750 5749 5748 5747 5746 5745 5743 5742
5783 5782 5781 5781 5781 5781 5781 5779 5778 5778 5778 5778 5777 5779 5779 5778 5777 5774 5772 5770 5770 5769 5767 5766 5764 5763 5762 5761 5759 5759 5758 5756 5755 5753 5751 5750 5749 5748 5746 5745 5744 5743 5742
5783 5782 5781 5781 5781 5781 5781 5779 5778 5778 5777 5777 5776 5777 5777 5776 5775 5774 5772 5770 5768 5767 5766 5764 5763 5762 5761 5760 5759 5758 5757 5756 5754 5753 5751 5750 5748 5747 5746 5745 5744 5743 5741
5782 5781 5780 5780 5780 5780 5779 5778 5776 5775 5775 5774 5774 5775 5775 5774 5774 5774 5772 5770 5769 5767 5765 5764 5762 5761 5761 5759 5759 5757 5756 5755 5754 5752 5751 5749 5748 5747 5745 5744 5743 5742 5741
5781 5780 5779 5778 5779 5778 5777 5777 5774 5773 5771 5771 5772 5773 5774 5773 5774 5774 5772 5771 5770 5768 5766 5763 5762 5760 5759 5758 5757 5756 5755 5754 5753 5752 5750 5749 5747 5746 5745 5744 5743 5742 5740
5780 5779 5778 5777 5777 5775 5773 5772 5771 5771 5771 5770 5771 5771 5771 5772 5772 5772 5771 5770 5769 5768 5766 5764 5761 5759 5758 5756 5756 5755 5754 5753 5751 5750 5749 5748 5747 5745 5744 5743 5742 5741 5740
5778 5777 5776 5776 5774 5771 5770 5770 5769 5768 5767 5768 5765 5763 5766 5769 5769 5769 5769 5768 5767 5766 5765 5763 5761 5758 5756 5754 5754 5753 5752 5751 5750 5749 5748 5747 5746 5744 5742 5741 5741 5740 5739
5776 5776 5773 5772 5771 5768 5766 5766 5765 5763 5764 5765 5760 5755 5753 5756 5762 5767 5765 5764 5764 5764 5763 5762 5760 5757 5755 5753 5751 5750 5750 5749 5748 5747 5746 5745 5744 5743 5741 5740 5739 5738 5737
5774 5772 5771 5770 5768 5766 5763 5762 5761 5759 5757 5760 5761 5754 5747 5743 5750 5757 5760 5761 5760 5760 5759 5759 5757 5755 5754 5752 5749 5747 5746 5745 5744 5744 5743 5742 5742 5741 5739 5738 5738 5737 5736
5771 5770 5768 5766 5764 5763 5760 5759 5759 5758 5755 5753 5756 5756 5754 5751 5744 5743 5750 5754 5756 5755 5755 5756 5755 5754 5752 5750 5748 5745 5744 5743 5741 5740 5740 5738 5738 5737 5736 5735 5735 5735 5734
5769 5767 5765 5763 5760 5759 5757 5756 5754 5753 5753 5750 5749 5750 5750 5749 5747 5740 5737 5742 5747 5751 5752 5751 5751 5750 5749 5747 5745 5743 5741 5739 5737 5737 5735 5734 5734 5733 5732 5732 5732 5732 5731
5765 5764 5761 5759 5757 5756 5754 5752 5750 5749 5748 5747 5746 5745 5743 5741 5739 5738 5734 5735 5737 5743 5747 5748 5747 5746 5745 5744 5741 5739 5738 5736 5734 5733 5732 5730 5730 5730 5729 5729 5729 5729 5728
5761 5759 5758 5756 5754 5752 5751 5749 5746 5744 5743 5742 5740 5740 5740 5739 5740 5738 5734 5732 5732 5736 5740 5742 5743 5742 5741 5739 5737 5736 5734 5732 5730 5729 5727 5726 5726 5725 5725 5725 5724 5725 5725
5759 5757 5755 5752 5750 5748 5747 5744 5742 5740 5738 5737 5736 5735 5734 5734 5735 5734 5731 5728 5724 5726 5729 5733 5737 5737 5736 5735 5733 5731 5729 5727 5725 5724 5723 5721 5721 5720 5720 5720 5720 5720 5721
5756 5753 5751 5748 5746 5743 5741 5739 5736 5735 5734 5732 5731 5729 5728 5729 5730 5730 5730 5727 5720 5714 5716 5723 5726 5731 5731 5729 5727 5725 5724 5722 5720 5719 5718 5717 5716 5715 5715 5715 5715 5715 5716
5750 5747 5745 5744 5741 5739 5737 5734 5731 5730 5728 5727 5726 5724 5722 5723 5723 5724 5723 5723 5720 5715 5711 5716 5719 5723 5724 5724 5721 5720 5719 5718 5716 5715 5713 5712 5711 5711 5710 5710 5711 5711 5712
5744 5741 5739 5737 5735 5734 5732 5729 5726 5725 5722 5721 5720 5718 5717 5717 5716 5716 5716 5715 5714 5711 5706 5709 5712 5715 5715 5714 5713 5713 5712 5712 5711 5710 5709 5708 5707 5706 5706 5706 5706 5706 5706
5740 5737 5734 5731 5729 5728 5725 5722 5720 5719 5716 5714 5713 5712 5711 5711 5709 5709 5708 5706 5705 5705 5702 5699 5702 5704 5705 5706 5706 5705 5705 5707 5706 5706 5705 5704 5703 5702 5701 5701 5701 5701 5701
5736 5733 5729 5726 5724 5721 5719 5717 5714 5713 5711 5709 5708 5707 5705 5704 5702 5702 5701 5699 5699 5700 5698 5695 5694 5696 5696 5697 5697 5696 5697 5698 5700 5701 5700 5699 5698 5697 5697 5697 5697 5697 5698
5730 5727 5724 5721 5719 5716 5713 5711 5709 5707 5706 5704 5703 5702 5701 5699 5697 5696 5695 5693 5692 5690 5689 5688 5687 5687 5687 5688 5687 5685 5686 5688 5690 5693 5693 5693 5692 5692 5692 5693 5693 5694 5694
5725 5722 5719 5715 5713 5710 5708 5705 5702 5702 5699 5698 5697 5695 5695 5694 5693 5691 5689 5686 5685 5683 5681 5679 5678 5678 5677 5676 5676 5677 5677 5679 5682 5684 5684 5686 5686 5686 5687 5688 5688 5689 5690
5718 5715 5712 5709 5706 5704 5701 5698 5696 5694 5692 5690 5689 5688 5688 5687 5686 5684 5683 5680 5678 5675 5672 5670 5669 5668 5668 5669 5669 5669 5668 5669 5670 5676 5676 5678 5681 5681 5683 5684 5685 5686 5687
5710 5707 5705 5703 5699 5696 5694 5691 5689 5687 5685 5683 5682 5681 5681 5682 5678 5677 5675 5674 5672 5670 5668 5665 5662 5662 5662 5663 5662 5661 5661 5661 5662 5668 5668 5669 5673 5674 5679 5681 5682 5682 5683
5703 5700 5698 5696 5693 5690 5687 5685 5683 5681 5680 5678 5677 5676 5673 5671 5670 5668 5668 5666 5665 5664 5663 5661 5660 5659 5660 5659 5657 5656 5655 5657 5659 5662 5662 5660 5666 5668 5673 5674 5675 5676 5676
5697 5694 5692 5689 5686 5683 5681 5679 5676 5675 5673 5672 5670 5668 5666 5664 5661 5660 5660 5658 5657 5657 5658 5657 5656 5655 5654 5653 5652 5650 5649 5648 5649 5654 5657 5656 5659 5661 5663 5665 5667 5668 5668
5691 5688 5686 5683 5679 5676 5674 5672 5669 5669 5667 5665 5663 5661 5659 5657 5654 5652 5651 5650 5649 5649 5650 5650 5648 5648 5648 5647 5646 5644 5643 5642 5643 5645 5651 5650 5652 5652 5653 5658 5660 5660 5659